Location: Unspecified
(43.4680°N, 87.1740°E)
Time: 20:41:45
(UTC+00:00)

CZ-3B R/B - Pass Details

Date: 17 April 2021
Orbit: 304 x 17371 km, 54.8° (Epoch: 12 May)

Event Time Altitude Azimuth Distance (km) Brightness Sun altitude
Exits shadow 21:32:18 19° 219° (SW) 7,580 6.9 -19.0°
Maximum altitude 21:49:01 76° 140° (SE) 1,718 4.2 -16.5°
Drops below altitude 10° 21:54:21 10° 55° (NE) 2,478 6.5 -15.7°
Sets 21:55:45 0° 54° (NE) 3,048 7.5 -15.5°
